Location: Azul
(36.7830°S, 59.8500°W)
Time: 04:24:32
(UTC-03:00)

ISS - Pass Details

Date: 22 April 2017
Orbit: 401 x 409 km, 51.6° (Epoch: 29 April)

Event Time Altitude Azimuth Distance (km) Brightness Sun altitude
Exits shadow 05:03:41 14° 80° (E) 1,273 -0.6 -30.1°
Drops below altitude 10° 05:04:15 10° 76° (ENE) 1,485 -0.2 -30.0°
Sets 05:06:26 0° 67° (ENE) 2,339 0.9 -29.6°
